STAR ONE C4

Last updated on Thu Oct 30 2025 00:02:50 GMT+0000 (Coordinated Universal Time)

1 40733U 15034B 25302.45878088 -.00000255 00000+0 00000+0 0 9991 2 40733 0.0298 342.5256 0001478 261.8897 248.8130 1.00272735 37706
UTC large
Height (km)
Speed (km/s)
/
Latitude / Longitude
Inclination (degrees)
Orbital Period (minutes)
Azimuth
Elevation
Range (km)
Doppler Factor

Next 0 passes for location: London (51.5072 / 0.1276)

Sorry there are no passes over London.